{"data":{"norad_id":81386,"intl_designator":"","name":"UNKNOWN","alt_names":[],"object_type":"UNKNOWN","status":"UNKNOWN","operator":null,"country":null,"launch_date":null,"launch_site_code":null,"launch_vehicle":null,"mission":null,"orbit_class":"UNKNOWN","rcs_meters":null,"size_class":null,"mass_kg":null,"dimensions":null,"purposes":[],"wikipedia_slug":null,"has_3d_model":false,"image_url":null,"decayed_at":null,"tle_current":{"epoch":"2026-05-22T08:10:13.213344Z","epoch_age_seconds":295110,"freshness":"STALE","line1":"1 81386U          26142.34043071  .00003145  00000+0  10097-2 0  9994","line2":"2 81386  71.0477   7.5657 0088419 190.2004 169.7341 14.37966874647317","mean_motion":14.37966874,"eccentricity":0.0088419,"inclination_deg":71.0477,"raan_deg":7.5657,"arg_perigee_deg":190.2004,"mean_anomaly_deg":169.7341,"bstar":0.0010097,"rev_number":64731,"period_min":100.14138893161,"perigee_km":702.06293127706,"apogee_km":828.38469522644,"semimajor_km":7143.3608132517,"source":"CELESTRAK","updated_at":"2026-05-25T13:38:09.450894Z"}}}